RPA876 KPHL-KRIC

Flight info

Callsign RPA876
Flight time 0h 41m
Altitude 26000
Route OOD TEBEE HAYDO GROUT T315 COLIN
Aircraft E75L/M-SDE3GILORVW/S

Departure

Time 2026-04-20 15:01
Airport Philadelphia International Airport (KPHL)

Arrival

Time 2026-04-20 15:42
Airport Richmond International Airport (KRIC)
Time Latitude Longitude Altitude Speed Heading
2026-04-20 14:48 39.88190 -75.23682 17 ft 0 kts 281°
2026-04-20 14:56 39.88187 -75.23662 17 ft 4 kts 281°
2026-04-20 14:56 39.88181 -75.23628 17 ft 4 kts 281°
2026-04-20 14:56 39.88176 -75.23594 17 ft 4 kts 288°
2026-04-20 14:56 39.88163 -75.23566 17 ft 4 kts 330°
2026-04-20 14:57 39.88151 -75.23567 17 ft 1 kts 39°
2026-04-20 14:58 39.88151 -75.23565 17 ft 0 kts 49°
2026-04-20 14:58 39.88150 -75.23544 19 ft 5 kts 119°
2026-04-20 14:58 39.88095 -75.23515 17 ft 16 kts 166°
2026-04-20 14:59 39.88004 -75.23464 17 ft 14 kts 159°
2026-04-20 14:59 39.87903 -75.23431 16 ft 16 kts 175°
2026-04-20 14:59 39.87841 -75.23334 18 ft 15 kts 118°
2026-04-20 14:59 39.87751 -75.23259 18 ft 17 kts 160°
2026-04-20 15:00 39.87635 -75.23203 17 ft 19 kts 157°
2026-04-20 15:00 39.87506 -75.23135 16 ft 21 kts 161°
2026-04-20 15:00 39.87371 -75.23092 15 ft 9 kts 194°
2026-04-20 15:00 39.87354 -75.23110 16 ft 2 kts 252°
2026-04-20 15:01 39.87299 -75.23403 14 ft 73 kts 256°
2026-04-20 15:01 39.87109 -75.24373 20 ft 146 kts 255°
2026-04-20 15:01 39.86825 -75.25702 790 ft 148 kts 256°
2026-04-20 15:01 39.86533 -75.26985 1581 ft 157 kts 257°
2026-04-20 15:02 39.86256 -75.28452 2009 ft 177 kts 258°
2026-04-20 15:02 39.85936 -75.30065 2626 ft 192 kts 256°
2026-04-20 15:02 39.85582 -75.31815 3234 ft 212 kts 256°
2026-04-20 15:02 39.85197 -75.33712 3827 ft 227 kts 253°
2026-04-20 15:03 39.84478 -75.35606 4437 ft 242 kts 231°
2026-04-20 15:03 39.83089 -75.36916 5139 ft 255 kts 204°
2026-04-20 15:03 39.81324 -75.37303 5933 ft 263 kts 179°
2026-04-20 15:03 39.79509 -75.36847 6747 ft 269 kts 168°
2026-04-20 15:04 39.77699 -75.36166 7498 ft 272 kts 167°
2026-04-20 15:04 39.75869 -75.35478 8246 ft 276 kts 167°
2026-04-20 15:04 39.74013 -75.34785 8970 ft 279 kts 167°
2026-04-20 15:04 39.72139 -75.34050 9680 ft 283 kts 167°
2026-04-20 15:05 39.70243 -75.33282 10253 ft 293 kts 167°
2026-04-20 15:05 39.68266 -75.32434 10657 ft 305 kts 166°
2026-04-20 15:05 39.66231 -75.31532 11229 ft 312 kts 167°
2026-04-20 15:05 39.64162 -75.30628 11817 ft 314 kts 172°
2026-04-20 15:06 39.62039 -75.30462 12451 ft 302 kts 193°
2026-04-20 15:06 39.59964 -75.30850 13114 ft 302 kts 195°
2026-04-20 15:06 39.57884 -75.31245 13815 ft 303 kts 195°
2026-04-20 15:06 39.55791 -75.31631 14520 ft 304 kts 196°
2026-04-20 15:07 39.53694 -75.32027 15255 ft 306 kts 196°
2026-04-20 15:07 39.51588 -75.32440 15993 ft 306 kts 197°
2026-04-20 15:07 39.49479 -75.32857 16734 ft 308 kts 197°
2026-04-20 15:07 39.47354 -75.33243 17429 ft 309 kts 197°
2026-04-20 15:08 39.45218 -75.33631 18120 ft 311 kts 197°
2026-04-20 15:08 39.43092 -75.34019 18781 ft 312 kts 197°
2026-04-20 15:08 39.40934 -75.34407 19428 ft 314 kts 197°
2026-04-20 15:08 39.38764 -75.34799 20019 ft 316 kts 198°
2026-04-20 15:09 39.36601 -75.35189 20650 ft 318 kts 197°
2026-04-20 15:09 39.34396 -75.35588 21216 ft 321 kts 197°
2026-04-20 15:09 39.32174 -75.35988 21826 ft 322 kts 197°
2026-04-20 15:09 39.29943 -75.36390 22400 ft 325 kts 197°
2026-04-20 15:10 39.27692 -75.36797 22862 ft 331 kts 197°
2026-04-20 15:10 39.25378 -75.37221 23215 ft 339 kts 197°
2026-04-20 15:10 39.23056 -75.37637 23766 ft 342 kts 197°
2026-04-20 15:10 39.20691 -75.38061 24311 ft 345 kts 197°
2026-04-20 15:11 39.18308 -75.38487 24865 ft 347 kts 197°
2026-04-20 15:11 39.15909 -75.38917 25353 ft 349 kts 198°
2026-04-20 15:11 39.13492 -75.39350 25867 ft 352 kts 198°
2026-04-20 15:11 39.11058 -75.39784 26343 ft 355 kts 198°
2026-04-20 15:12 39.08556 -75.40237 26346 ft 371 kts 198°
2026-04-20 15:12 39.05958 -75.40706 26358 ft 382 kts 197°
2026-04-20 15:12 39.03354 -75.41372 26351 ft 376 kts 208°
2026-04-20 15:12 39.01207 -75.43123 26352 ft 361 kts 229°
2026-04-20 15:13 38.99469 -75.45463 26296 ft 365 kts 230°
2026-04-20 15:13 38.97622 -75.47699 26216 ft 364 kts 230°
2026-04-20 15:13 38.96212 -75.50327 26255 ft 357 kts 245°
2026-04-20 15:13 38.95091 -75.53175 26219 ft 357 kts 245°
2026-04-20 15:14 38.94004 -75.56053 26222 ft 359 kts 245°
2026-04-20 15:14 38.92857 -75.58901 26229 ft 359 kts 244°
2026-04-20 15:14 38.91673 -75.61721 26235 ft 359 kts 243°
2026-04-20 15:14 38.90463 -75.64527 26214 ft 358 kts 243°
2026-04-20 15:15 38.89233 -75.67311 26217 ft 358 kts 243°
2026-04-20 15:15 38.87994 -75.70084 26220 ft 359 kts 243°
2026-04-20 15:15 38.86744 -75.72856 26221 ft 359 kts 242°
2026-04-20 15:15 38.85489 -75.75620 26222 ft 359 kts 242°
2026-04-20 15:16 38.84228 -75.78378 26222 ft 359 kts 242°
2026-04-20 15:16 38.82963 -75.81138 26234 ft 359 kts 242°
2026-04-20 15:16 38.81701 -75.83895 26239 ft 359 kts 242°
2026-04-20 15:16 38.80435 -75.86655 26245 ft 359 kts 242°
2026-04-20 15:17 38.79166 -75.89412 26251 ft 359 kts 242°
2026-04-20 15:17 38.77912 -75.92137 26250 ft 359 kts 242°
2026-04-20 15:17 38.76522 -75.94799 26249 ft 364 kts 232°
2026-04-20 15:17 38.74577 -75.96928 26275 ft 370 kts 224°
2026-04-20 15:18 38.72586 -75.98999 26267 ft 368 kts 226°
2026-04-20 15:18 38.70625 -76.01111 26244 ft 368 kts 226°
2026-04-20 15:18 38.68664 -76.03231 26247 ft 372 kts 225°
2026-04-20 15:18 38.66552 -76.05196 26244 ft 376 kts 222°
2026-04-20 15:19 38.64410 -76.07111 26235 ft 374 kts 222°
2026-04-20 15:19 38.62317 -76.09081 26244 ft 370 kts 227°
2026-04-20 15:19 38.60439 -76.11316 26227 ft 369 kts 229°
2026-04-20 15:19 38.58574 -76.13560 26238 ft 368 kts 229°
2026-04-20 15:20 38.56713 -76.15806 26240 ft 368 kts 229°
2026-04-20 15:20 38.54858 -76.18054 26238 ft 367 kts 229°
2026-04-20 15:20 38.53006 -76.20302 26240 ft 367 kts 230°
2026-04-20 15:20 38.51155 -76.22550 26239 ft 367 kts 230°
2026-04-20 15:21 38.49307 -76.24799 26240 ft 367 kts 230°
2026-04-20 15:21 38.47456 -76.27048 26239 ft 367 kts 230°
2026-04-20 15:21 38.45607 -76.29296 26239 ft 367 kts 230°
2026-04-20 15:21 38.43758 -76.31543 26238 ft 367 kts 230°
2026-04-20 15:22 38.41907 -76.33790 26238 ft 367 kts 229°
2026-04-20 15:22 38.40055 -76.36035 26238 ft 367 kts 230°
2026-04-20 15:22 38.38205 -76.38277 26238 ft 367 kts 229°
2026-04-20 15:22 38.36353 -76.40518 26238 ft 367 kts 229°
2026-04-20 15:23 38.34506 -76.42752 26136 ft 363 kts 229°
2026-04-20 15:23 38.32541 -76.44712 25854 ft 352 kts 224°
2026-04-20 15:23 38.30624 -76.46580 25551 ft 343 kts 225°
2026-04-20 15:23 38.28736 -76.48418 25038 ft 339 kts 224°
2026-04-20 15:24 38.26877 -76.50220 24563 ft 333 kts 224°
2026-04-20 15:24 38.25047 -76.51989 24132 ft 328 kts 224°
2026-04-20 15:24 38.23236 -76.53737 23697 ft 326 kts 224°
2026-04-20 15:24 38.21433 -76.55471 23263 ft 324 kts 224°
2026-04-20 15:25 38.19640 -76.57195 22836 ft 322 kts 224°
2026-04-20 15:25 38.17857 -76.58906 22415 ft 320 kts 224°
2026-04-20 15:25 38.16108 -76.60585 21990 ft 319 kts 224°
2026-04-20 15:25 38.14339 -76.62278 21567 ft 318 kts 224°
2026-04-20 15:26 38.12576 -76.63967 21140 ft 317 kts 224°
2026-04-20 15:26 38.10823 -76.65643 20725 ft 315 kts 224°
2026-04-20 15:26 38.08999 -76.67229 19887 ft 327 kts 216°
2026-04-20 15:26 38.06899 -76.68481 18908 ft 337 kts 212°
2026-04-20 15:27 38.04824 -76.69706 18572 ft 322 kts 213°
2026-04-20 15:27 38.02798 -76.70928 17885 ft 321 kts 213°
2026-04-20 15:27 38.00825 -76.72126 17530 ft 310 kts 213°
2026-04-20 15:27 37.98903 -76.73307 17166 ft 305 kts 214°
2026-04-20 15:28 37.96995 -76.74488 16785 ft 306 kts 214°
2026-04-20 15:28 37.95078 -76.75677 16406 ft 308 kts 214°
2026-04-20 15:28 37.93148 -76.76874 16003 ft 310 kts 214°
2026-04-20 15:28 37.91210 -76.78074 15621 ft 310 kts 214°
2026-04-20 15:29 37.89272 -76.79275 15227 ft 310 kts 214°
2026-04-20 15:29 37.87341 -76.80474 14841 ft 308 kts 214°
2026-04-20 15:29 37.85437 -76.81649 14445 ft 301 kts 214°
2026-04-20 15:29 37.83578 -76.82793 14089 ft 293 kts 214°
2026-04-20 15:30 37.81763 -76.83916 13706 ft 287 kts 214°
2026-04-20 15:30 37.79983 -76.85016 13359 ft 282 kts 214°
2026-04-20 15:30 37.78240 -76.86095 12999 ft 277 kts 215°
2026-04-20 15:30 37.76520 -76.87159 12676 ft 274 kts 215°
2026-04-20 15:31 37.74811 -76.88221 12331 ft 274 kts 215°
2026-04-20 15:31 37.73102 -76.89285 11984 ft 274 kts 214°
2026-04-20 15:31 37.71382 -76.90346 11646 ft 276 kts 214°
2026-04-20 15:31 37.69652 -76.91412 11294 ft 276 kts 214°
2026-04-20 15:32 37.67925 -76.92473 10958 ft 276 kts 213°
2026-04-20 15:32 37.66201 -76.93536 10598 ft 276 kts 213°
2026-04-20 15:32 37.64474 -76.94600 10243 ft 276 kts 212°
2026-04-20 15:32 37.62755 -76.95654 9924 ft 275 kts 212°
2026-04-20 15:33 37.61033 -76.96712 9567 ft 275 kts 211°
2026-04-20 15:33 37.59314 -76.97771 9212 ft 275 kts 211°
2026-04-20 15:33 37.57599 -76.98830 8868 ft 274 kts 211°
2026-04-20 15:33 37.55889 -76.99881 8541 ft 273 kts 210°
2026-04-20 15:34 37.54184 -77.00923 8224 ft 272 kts 210°
2026-04-20 15:34 37.52506 -77.01949 7839 ft 271 kts 210°
2026-04-20 15:34 37.50820 -77.02986 7512 ft 268 kts 211°
2026-04-20 15:34 37.49127 -77.04031 7196 ft 267 kts 210°
2026-04-20 15:35 37.47472 -77.05035 6843 ft 267 kts 210°
2026-04-20 15:35 37.45805 -77.06056 6522 ft 265 kts 210°
2026-04-20 15:35 37.44170 -77.07059 6148 ft 257 kts 210°
2026-04-20 15:35 37.42610 -77.08014 5844 ft 242 kts 211°
2026-04-20 15:36 37.41131 -77.08917 5551 ft 230 kts 211°
2026-04-20 15:36 37.39720 -77.09781 5277 ft 221 kts 211°
2026-04-20 15:36 37.38362 -77.10609 4992 ft 213 kts 212°
2026-04-20 15:36 37.37051 -77.11410 4733 ft 206 kts 210°
2026-04-20 15:37 37.35796 -77.12183 4493 ft 195 kts 219°
2026-04-20 15:37 37.34881 -77.13329 4315 ft 180 kts 241°
2026-04-20 15:37 37.34464 -77.14768 4097 ft 174 kts 264°
2026-04-20 15:37 37.34602 -77.16299 3641 ft 182 kts 289°
2026-04-20 15:38 37.35200 -77.17699 3108 ft 181 kts 296°
2026-04-20 15:38 37.35751 -77.19118 2586 ft 180 kts 295°
2026-04-20 15:38 37.36545 -77.20311 2074 ft 182 kts 324°
2026-04-20 15:38 37.37658 -77.21074 1692 ft 177 kts 328°
2026-04-20 15:39 37.38628 -77.21879 1746 ft 166 kts 322°
2026-04-20 15:39 37.39606 -77.22699 1761 ft 171 kts 326°
2026-04-20 15:39 37.40281 -77.23218 1776 ft 172 kts 326°
2026-04-20 15:39 37.41294 -77.24024 1780 ft 173 kts 325°
2026-04-20 15:40 37.42288 -77.24836 1785 ft 169 kts 325°
2026-04-20 15:40 37.43291 -77.25633 1639 ft 173 kts 326°
2026-04-20 15:40 37.44299 -77.26439 1453 ft 169 kts 326°
2026-04-20 15:40 37.45276 -77.27226 1192 ft 162 kts 326°
2026-04-20 15:41 37.46183 -77.27953 979 ft 148 kts 326°
2026-04-20 15:41 37.47033 -77.28636 797 ft 143 kts 327°
2026-04-20 15:41 37.47873 -77.29308 613 ft 144 kts 326°
2026-04-20 15:41 37.48721 -77.29991 404 ft 145 kts 326°
2026-04-20 15:42 37.49561 -77.30674 219 ft 141 kts 326°
2026-04-20 15:42 37.50341 -77.31297 174 ft 115 kts 326°
2026-04-20 15:42 37.50769 -77.31650 174 ft 39 kts 319°
2026-04-20 15:42 37.50901 -77.31944 173 ft 38 kts 287°
2026-04-20 15:43 37.50953 -77.32266 173 ft 37 kts 277°
2026-04-20 15:43 37.50986 -77.32592 174 ft 38 kts 279°
2026-04-20 15:43 37.50960 -77.32892 174 ft 31 kts 280°
2026-04-20 15:43 37.50973 -77.32966 174 ft 0 kts 282°